"Pseudo-MPEC" for ZTF10FM

Created 2026 Aug 15 1:35:29 UT using Find_Orb

Click here for an explanation of pseudo-MPECs

 
 Astrometry: 
     ZTF10FM*0C2026 08 10.39646100 03 06.091-17 10 06.72   ~8F1Z 18.38RUNEOCPI41
     ZTF10FM 0C2026 08 10.39680800 03 07.051-17 10 10.21   ~8F1Z 18.38RUNEOCPI41
     ZTF10FM 0C2026 08 10.43691100 05 03.990-17 16 50.31   ~8F1Z 18.23iUNEOCPI41
     ZTF10FM 0C2026 08 10.43725900 05 05.043-17 16 53.80   ~8F1Z 18.23iUNEOCPI41

Station data:
(I41) Palomar Mountain--ZTF  (N33.357336 W116.859780)  US/California.
   Observers B. T. Bolin, Z. T. F. Collaboration. Measurers B. T. Bolin,
   Z.-Y. Lin, F. J. Masci. 1.2-m f/2.4 Schmidt.

Orbital elements:  ZTF10FM
   Perihelion 2026 Aug 8.956822 +/- 23.6 TT = 22:57:49.3 (JD 2461261.456822)
Epoch 2026 Aug 10.0 TT = JDT 2461262.5   Earth MOID: 0.0174   Ju: 0.3430
M   0.121781973 +/- 30              (J2000 ecliptic)             AutoNEOCP
n   0.116741273 +/- 0.264           Peri.  180.127815 +/- 60
a   4.146227209 +/- 6.24            Node   136.255696 +/- 80
e   0.75125999 +/- 0.236            Incl.   10.429070 +/- 11
P   8.44267                H 25.25  G  0.15   U 11.8  SR
q 1.031332584 +/- 0.323    Q 7.261121834 +/- 24.8
From 4 observations 2026 Aug. 10 (58.7 min); mean residual 0".27
Residuals in arcseconds: 
260810 I41  .43+  .02-    260810 I41  .33-  .04+    
260810 I41  .43-  .02+    260810 I41  .33+  .04-    

Ephemerides (geocentric):
Date (UTC) HH   RA             Dec           delta  r     elong  mag " sig PA
---- --------  ------------   ------------  ------ ------ -----  --- --------
2026 08 15 02  02 04 32.840   -21 09 05.71  .04831 1.0352 116.4 20.9  56d 103
2026 08 15 03  02 05 02.299   -21 09 26.65  .04856 1.0353 116.3 20.9  56d 103
2026 08 15 04  02 05 31.448   -21 09 47.08  .04882 1.0353 116.2 21.0  56d 103
2026 08 15 05  02 06 00.292   -21 10 06.99  .04907 1.0354 116.1 21.0  55d 103
2026 08 15 06  02 06 28.835   -21 10 26.41  .04932 1.0354 116.0 21.0  55d 103
2026 08 15 07  02 06 57.081   -21 10 45.35  .04957 1.0355 116.0 21.0  55d 103
2026 08 15 08  02 07 25.034   -21 11 03.82  .04982 1.0356 115.9 21.0  55d 103
2026 08 15 09  02 07 52.699   -21 11 21.83  .05007 1.0356 115.8 21.0  55d 103
2026 08 15 10  02 08 20.080   -21 11 39.39  .05033 1.0357 115.7 21.0  55d 103
2026 08 15 11  02 08 47.180   -21 11 56.51  .05058 1.0357 115.7 21.0  55d 103
2026 08 15 12  02 09 14.004   -21 12 13.20  .05083 1.0358 115.6 21.1  55d 103
2026 08 15 13  02 09 40.555   -21 12 29.48  .05108 1.0358 115.5 21.1  55d 103
2026 08 15 14  02 10 06.837   -21 12 45.35  .05134 1.0359 115.5 21.1  55d 103
2026 08 15 15  02 10 32.855   -21 13 00.82  .05159 1.0360 115.4 21.1  55d 103
2026 08 15 16  02 10 58.611   -21 13 15.90  .05184 1.0360 115.3 21.1  55d 103
2026 08 15 17  02 11 24.109   -21 13 30.60  .05210 1.0361 115.3 21.1  55d 103
2026 08 15 18  02 11 49.353   -21 13 44.94  .05235 1.0361 115.2 21.1  55d 103
2026 08 15 19  02 12 14.346   -21 13 58.91  .05260 1.0362 115.1 21.1  55d 103
2026 08 15 20  02 12 39.092   -21 14 12.53  .05286 1.0362 115.1 21.2  55d 103
2026 08 15 21  02 13 03.593   -21 14 25.80  .05311 1.0363 115.0 21.2  55d 103
2026 08 15 22  02 13 27.854   -21 14 38.74  .05337 1.0364 114.9 21.2  55d 103
2026 08 15 23  02 13 51.878   -21 14 51.36  .05362 1.0364 114.9 21.2  55d 103
2026 08 16 00  02 14 15.667   -21 15 03.65  .05387 1.0365 114.8 21.2  55d 103
2026 08 16 01  02 14 39.225   -21 15 15.62  .05413 1.0365 114.8 21.2  55d 103
2026 08 16 02  02 15 02.555   -21 15 27.29  .05438 1.0366 114.7 21.2  55d 103
2026 08 16 03  02 15 25.660   -21 15 38.67  .05464 1.0367 114.7 21.2  54d 103
2026 08 16 04  02 15 48.543   -21 15 49.75  .05489 1.0367 114.6 21.3  54d 103
2026 08 16 05  02 16 11.206   -21 16 00.54  .05515 1.0368 114.5 21.3  54d 103
2026 08 16 06  02 16 33.653   -21 16 11.06  .05540 1.0369 114.5 21.3  54d 103
2026 08 16 07  02 16 55.887   -21 16 21.31  .05566 1.0369 114.4 21.3  54d 103
2026 08 16 08  02 17 17.910   -21 16 31.29  .05591 1.0370 114.4 21.3  54d 103
2026 08 16 09  02 17 39.726   -21 16 41.01  .05617 1.0370 114.3 21.3  54d 103
2026 08 16 10  02 18 01.336   -21 16 50.47  .05642 1.0371 114.3 21.3  54d 103
2026 08 16 11  02 18 22.743   -21 16 59.69  .05668 1.0372 114.2 21.3  54d 103
2026 08 16 12  02 18 43.950   -21 17 08.67  .05693 1.0372 114.2 21.3  54d 103
2026 08 16 13  02 19 04.960   -21 17 17.41  .05719 1.0373 114.1 21.4  54d 103
2026 08 16 14  02 19 25.775   -21 17 25.92  .05745 1.0374 114.1 21.4  54d 103
2026 08 16 15  02 19 46.398   -21 17 34.20  .05770 1.0374 114.0 21.4  54d 103
2026 08 16 16  02 20 06.830   -21 17 42.26  .05796 1.0375 114.0 21.4  54d 103
2026 08 16 17  02 20 27.075   -21 17 50.11  .05821 1.0376 113.9 21.4  54d 103
2026 08 16 18  02 20 47.135   -21 17 57.74  .05847 1.0376 113.9 21.4  54d 103
2026 08 16 19  02 21 07.011   -21 18 05.17  .05873 1.0377 113.9 21.4  54d 103
2026 08 16 20  02 21 26.707   -21 18 12.40  .05898 1.0378 113.8 21.4  54d 103
2026 08 16 21  02 21 46.225   -21 18 19.43  .05924 1.0378 113.8 21.4  54d 103
2026 08 16 22  02 22 05.566   -21 18 26.27  .05950 1.0379 113.7 21.4  54d 103
2026 08 16 23  02 22 24.734   -21 18 32.92  .05975 1.0380 113.7 21.5  54d 103
2026 08 17 00  02 22 43.729   -21 18 39.39  .06001 1.0380 113.6 21.5  54d 103
2026 08 17 01  02 23 02.555   -21 18 45.68  .06027 1.0381 113.6 21.5  54d 103